EW9935 Weather Reports


time (UTC)temp
C
wind
direction
speed
KPH
gust
KPH
rain 1hr
cm
rain 24hr
cm
rain mn
cm
humidity
%
barometer
mb
20260503194504 22 360 0.0 4.8 0.00 0.00 0.00 75 1011.9
20260503193001 23 360 0.0 6.4 0.00 0.00 0.00 75 1011.9
20260503191606 23 360 0.0 3.2 0.00 0.00 0.00 74 1012.0
20260503190057 24 360 0.0 3.2 0.00 0.00 0.00 71 1011.9
20260503184621 24 294 0.0 0.0 0.00 0.00 0.00 63 1012.1
20260503183104 24 360 0.0 0.0 0.00 0.00 0.00 64 1012.2
20260503181550 24 296 0.0 0.0 0.00 0.00 0.00 66 1012.4
20260503180044 23 41 0.0 0.0 0.00 0.00 0.00 66 1012.5
20260503174553 23 360 0.0 0.0 0.00 0.00 0.00 66 1012.7
20260503173039 22 324 0.0 1.6 0.00 0.00 0.00 68 1012.8
20260503171513 22 360 0.0 0.0 0.00 0.00 0.00 70 1012.9
20260503090105 13 182 0.0 0.0 0.00 0.00 0.00 99 1013.0
20260503081556 15 186 0.0 0.0 0.00 0.00 0.00 95 1013.0
20260503071603 16 185 0.0 0.0 0.00 0.00 0.00 94 1012.8
20260503054551 17 360 0.0 0.0 0.00 0.00 0.00 91 1012.6
20260503053033 17 360 0.0 0.0 0.00 0.00 0.00 91 1012.6
20260503051543 17 360 0.0 0.0 0.00 0.00 0.00 91 1012.7
20260503050032 17 360 0.0 0.0 0.00 0.00 0.00 90 1012.7
20260503044534 18 360 0.0 0.0 0.00 0.00 0.00 89 1012.6
20260503043029 18 221 0.0 0.0 0.00 0.00 0.00 88 1012.6
20260503041532 18 221 0.0 0.0 0.00 0.00 0.00 88 1012.5
20260503040028 18 360 0.0 0.0 0.00 0.00 0.00 86 1012.4
20260503034528 20 360 0.0 0.0 0.00 0.00 0.00 85 1012.2
20260503033025 20 360 0.0 0.0 0.00 0.00 0.00 83 1012.0
20260503031531 21 360 0.0 0.0 0.00 0.00 0.00 81 1012.0
20260503030028 21 360 0.0 0.0 0.00 0.00 0.00 80 1011.9
20260503024525 22 185 0.0 1.6 0.00 0.00 0.00 77 1011.8
20260503023020 22 360 0.0 0.0 0.00 0.00 0.00 76 1011.9
20260503021520 22 194 0.0 0.0 0.00 0.00 0.00 76 1011.9
20260503020018 22 360 0.0 0.0 0.00 0.00 0.00 77 1012.0
20260503014517 23 185 0.0 0.0 0.00 0.00 0.00 76 1012.1
20260503013027 23 360 0.0 1.6 0.00 0.00 0.00 75 1012.1
20260503011512 24 76 0.0 0.0 0.00 0.00 0.00 72 1012.3
20260503010011 25 273 0.0 0.0 0.00 0.00 0.00 65 1012.4
20260503004509 25 360 0.0 0.0 0.00 0.00 0.00 65 1012.5
20260503003008 25 360 0.0 0.0 0.00 0.00 0.00 66 1012.5
20260503001506 25 360 0.0 1.6 0.00 0.00 0.00 65 1012.6
20260503000003 24 360 0.0 1.6 0.00 0.00 0.00 65 1012.6
20260502234502 24 360 0.0 3.2 0.00 0.00 0.00 65 1012.8
20260502233059 25 246 0.0 3.2 0.00 0.00 0.00 60 1012.9
20260502231558 25 360 0.0 3.2 0.00 0.00 0.00 61 1013.1
20260502230059 23 271 0.0 3.2 0.00 0.00 0.00 71 1013.2
20260502224551 23 360 0.0 8.0 0.00 0.00 0.00 71 1013.4
20260502223059 23 360 0.0 6.4 0.00 0.00 0.00 73 1013.6
20260502221546 23 360 0.0 3.2 0.00 0.00 0.00 76 1013.7
20260502220043 23 360 0.0 3.2 0.00 0.00 0.00 75 1013.9
20260502214541 23 360 0.0 1.6 0.00 0.00 0.00 73 1014.1
20260502213043 23 267 0.0 4.8 0.00 0.00 0.00 74 1014.3
20260502211537 22 360 0.0 1.6 0.00 0.00 0.00 74 1014.4
20260502210032 22 360 0.0 1.6 0.00 0.00 0.00 76 1014.6
20260502204530 22 360 0.0 6.4 0.00 0.00 0.00 78 1014.7
20260502203119 22 360 0.0 4.8 0.00 0.00 0.00 80 1014.8
20260502201616 22 360 0.0 6.4 0.00 0.00 0.00 81 1014.9
20260502200101 22 360 0.0 4.8 0.00 0.00 0.00 82 1014.9